Flag for Bangladesh Weather past 2 weeks in Jessore, Bangladesh

Now
54 °F

Clear.


Feels Like: 50 °F
Forecast: 71 / 89 °F
Wind: 13 mph from Southwest

Location: Kunming Airport

Current Time: Mar 2, 2015 at 2:20:35 AM

Latest Report: Mar 2, 2015 at 2:00 AM


Visibility: 10 mi

Pressure: 30.09 "Hg

Humidity: 58%

Dew point: 39 °F

Location of JessoreLocation

Historic Weather in Jessore — Graph

°F

Jessore temperature yesterday

Maximum temperature yesterday: 73 °F (at 2:00 PM)
Minimum temperature yesterday: 43 °F (at 5:00 AM)
Average temperature yesterday: 59 °F

Past Weeks' High & Low Weather Summary

 TemperatureHumidityPressure
High73 °F (Mar 1, 2:00 PM)93% (Feb 15, 3:00 AM)30.30 "Hg (Feb 15, 3:00 AM)
Low37 °F (Feb 16, 5:00 AM)18% (Feb 21, 3:00 PM)29.92 "Hg (Feb 24, 2:00 PM)
Average55 °F49%30.09 "Hg
* Reported Feb 15 1:00 AM — Mar 2 1:00 AM, Jessore, Weather by CustomWeather, © 2015

Note: Actual official high and low records may vary slightly from our data, if they occured in-between our weather recording intervals... More about our weather records

Advertising

Jessore weather history for previous 24 hours

 ConditionsComfort  
Time TempWeatherWind HumidityBarometerVisibility
1:00 AM
Mon, Mar 2
55 °FClear.15 mph55%30.12 "Hg10 mi
12:00 AM57 °FClear.13 mph51%30.15 "Hg10 mi
11:00 PM
Sun, Mar 1
57 °FClear.20 mph51%30.18 "Hg10 mi
10:00 PM59 °FClear.15 mph48%30.18 "Hg10 mi
9:00 PM59 °FClear.15 mph48%30.18 "Hg10 mi
8:00 PM61 °FClear.17 mph42%30.18 "Hg10 mi
7:00 PM63 °FClear.15 mph39%30.18 "Hg10 mi
6:00 PM64 °FClear.20 mph34%30.12 "Hg10 mi
5:00 PM68 °FSunny.22 mph28%30.12 "Hg10 mi
4:00 PM72 °FSunny.24 mph23%30.09 "Hg10 mi
3:00 PM73 °FSunny.22 mph25%30.09 "Hg10 mi
2:00 PM73 °FPassing clouds.22 mph25%30.12 "HgN/A
1:00 PM72 °FSunny.22 mph25%30.15 "Hg10 mi
12:00 PM70 °FSunny.17 mph27%30.18 "Hg10 mi
11:00 AM68 °FSunny.20 mph30%30.24 "Hg10 mi
10:00 AM64 °FPassing clouds.17 mph40%30.27 "HgN/A
9:00 AM63 °FSunny.13 mph45%30.30 "Hg10 mi
8:00 AM57 °FSunny.10 mph59%30.30 "Hg10 mi
7:00 AM48 °FPassing clouds.6 mph76%30.27 "HgN/A
6:00 AM45 °FSunny.6 mph81%30.24 "Hg10 mi
5:00 AM43 °FClear.3 mph87%30.24 "Hg10 mi
4:00 AM46 °FClear.6 mph76%30.21 "Hg10 mi
3:00 AM46 °FPassing clouds.6 mph76%30.21 "HgN/A
2:00 AM50 °FClear.3 mph67%30.24 "Hg10 mi
Weather by CustomWeather, © 2015

See weather overviewHow to use our weather pages